Temp
-0 -1 -1 -1 -1 -1 -1 -1 -0 -0 -0 0 -0 -0 -0 0 0 0 0 1 1 0 -0 -2 -4 -3 -1
-1 -2 -2 -2 -2 -2 -2 -2 -1 -1 -1 -1 -1 -1 -1 -1 -1 -0 -0 -0 -0 -1 -1 -2 -3 -4 -4
-0 -3 -3 -3 -3 -3 -3 -2 -2 -2 -2 -1 -1 -1 -2 -2 -2 -1 -1 -1 -1 -1 -2 -2 -3 -5 -6
-3 -3 -4 -4 -4 -3 -3 -3 -3 -3 -3 -3 -3 -3 -3 -2 -2 -2 -2 -2 -2 -2 -2 -3 -4 -4 -5
-4 -4 -4 -4 -3 -4 -4 -4 -4 -4 -4 -4 -4 -5 -4 -4 -3 -3 -3 -4 -4 -4 -4 -4 -4 -5 -7
-4 -5 -5 -5 -6 -6 -6 -6 -6 -5 -5 -5 -6 -5 -5 -5 -5 -5 -5 -5 -5 -5 -6 -7 -7 -8 -9
-6 -6 -6 -6 -6 -6 -6 -6 -6 -6 -7 -7 -7 -7 -6 -6 -6 -7 -7 -7 -8 -8 -8 -9 -10 -10 -9
-7 -7 -8 -8 -8 -8 -8 -9 -9 -8 -8 -8 -7 -8 -7 -7 -8 -7 -7 -8 -9 -9 -10 -10 -10 -10 -10
-9 -9 -9 -9 -9 -9 -10 -10 -10 -9 -9 -10 -9 -9 -9 -8 -8 -8 -8 -9 -10 -10 -10 -10 -10 -10 -10
-10 -10 -10 -10 -10 -10 -10 -10 -10 -11 -10 -10 -9 -10 -11 -10 -9 -9 -9 -10 -11 -11 -11 -11 -11 -11 -11
-10 -10 -10 -11 -11 -10 -11 -11 -11 -11 -11 -11 -11 -11 -11 -12 -11 -11 -11 -11 -11 -11 -11 -12 -12 -12 -12
-11 -11 -11 -11 -11 -11 -11 -11 -11 -11 -11 -11 -12 -11 -11 -12 -12 -12 -12 -12 -12 -12 -12 -12 -12 -12 -12
-12 -12 -12 -12 -12 -12 -12 -12 -12 -12 -12 -12 -12 -12 -12 -12 -12 -12 -13 -13 -13 -13 -13 -13 -13 -13 -13
-13 -13 -13 -13 -13 -12 -12 -12 -12 -12 -12 -12 -12 -12 -13 -13 -13 -13 -13 -13 -13 -13 -13 -13 -13 -13 -13
-14 -14 -13 -14 -14 -13 -13 -13 -13 -12 -12 -12 -12 -12 -12 -13 -13 -13 -13 -13 -13 -13 -14 -14 -14 -13 -14
-15 -15 -15 -15 -15 -14 -14 -14 -14 -14 -13 -13 -13 -13 -13 -13 -13 -13 -13 -13 -14 -14 -14 -14 -14 -15 -15
-16 -16 -16 -15 -15 -15 -15 -15 -15 -15 -14 -14 -14 -14 -14 -14 -13 -13 -14 -14 -14 -15 -15 -15 -15 -16 -16
Height
1536 1539 1545 1548 1552 1556 1558 1561 1563 1565 1566 1567 1570 1572 1572 1572 1573 1574 1575 1576 1576 1577 1576 1575 1575 1574 1574
1530 1534 1538 1543 1547 1551 1554 1557 1558 1562 1562 1563 1565 1567 1568 1569 1569 1568 1569 1569 1572 1571 1570 1569 1570 1569 1569
1526 1530 1535 1538 1543 1546 1550 1553 1553 1557 1559 1558 1561 1562 1563 1564 1564 1564 1565 1564 1565 1566 1564 1563 1563 1563 1563
1525 1527 1531 1535 1538 1543 1545 1547 1548 1550 1553 1553 1556 1557 1557 1557 1558 1557 1557 1558 1557 1559 1558 1556 1556 1556 1556
1522 1524 1527 1530 1533 1535 1539 1539 1541 1542 1545 1545 1547 1547 1549 1549 1551 1551 1550 1551 1550 1550 1550 1550 1549 1549 1550
1516 1519 1522 1525 1527 1530 1531 1532 1535 1537 1537 1537 1539 1540 1542 1542 1544 1543 1543 1543 1543 1542 1542 1542 1542 1542 1543
1509 1512 1514 1518 1520 1522 1524 1525 1526 1529 1529 1529 1532 1532 1534 1535 1536 1536 1536 1536 1536 1536 1536 1535 1535 1535 1536
1502 1506 1507 1510 1512 1514 1516 1518 1517 1518 1522 1519 1524 1523 1526 1527 1528 1528 1528 1528 1528 1529 1530 1530 1529 1529 1529
1496 1498 1501 1502 1505 1507 1507 1510 1509 1510 1514 1514 1514 1514 1516 1516 1517 1518 1519 1520 1520 1521 1523 1523 1523 1522 1520
1488 1490 1493 1494 1498 1499 1500 1502 1503 1502 1504 1507 1506 1508 1505 1505 1507 1508 1510 1511 1513 1513 1514 1515 1516 1514 1512
1479 1481 1483 1485 1486 1490 1492 1493 1493 1492 1497 1499 1499 1499 1499 1499 1501 1503 1504 1504 1504 1505 1505 1506 1507 1507 1505
1471 1471 1472 1474 1478 1480 1483 1485 1485 1486 1490 1491 1490 1492 1492 1492 1492 1494 1495 1497 1498 1497 1496 1497 1496 1497 1497
1464 1464 1466 1469 1472 1473 1474 1476 1476 1478 1480 1482 1482 1484 1484 1483 1483 1485 1487 1487 1488 1488 1487 1487 1486 1487 1486
1455 1457 1459 1461 1464 1465 1466 1468 1468 1468 1471 1473 1474 1476 1475 1476 1477 1477 1477 1477 1478 1478 1479 1477 1477 1477 1476
1448 1451 1453 1455 1456 1457 1458 1460 1460 1461 1462 1463 1465 1467 1466 1468 1467 1468 1467 1467 1468 1469 1469 1467 1467 1466 1463
1442 1444 1446 1448 1450 1451 1452 1452 1453 1454 1455 1457 1459 1459 1458 1457 1459 1458 1458 1458 1460 1461 1460 1457 1453 1453 1451
1436 1438 1440 1441 1442 1444 1444 1444 1445 1446 1448 1449 1450 1450 1449 1447 1450 1453 1452 1452 1452 1451 1450 1447 1443 1442 1442
Wind_Speed
28 26 28 26 24 20 17 14 13 12 12 13 14 14 15 16 16 17 17 18 18 17 15 15 15 17 16
26 28 26 25 22 19 15 14 12 13 13 13 15 16 17 18 18 19 19 20 20 19 18 18 18 18 18
24 23 22 21 18 15 12 11 11 13 14 15 16 17 18 19 20 20 22 22 23 21 19 20 20 19 19
17 19 17 15 13 13 14 16 18 20 21 22 23 23 22 21 22 23 23 22 22 22 21 20 21 23 24
16 16 17 18 18 17 20 22 25 25 26 26 25 25 25 24 24 24 23 22 23 23 23 23 24 24 23
20 20 20 21 21 22 22 23 25 24 24 24 23 25 25 25 25 24 25 26 26 25 24 24 24 23 23
28 29 28 26 23 24 27 29 28 26 26 28 28 28 27 28 27 26 28 27 26 26 26 24 22 23 23
28 26 25 26 28 27 26 27 27 28 27 31 29 31 30 31 30 31 28 26 23 24 23 23 23 23 26
24 24 25 26 25 24 26 29 31 32 31 32 33 34 33 34 32 29 26 25 23 22 22 23 25 26 27
27 29 29 31 28 28 30 31 32 33 34 34 33 27 29 29 30 25 22 23 21 21 22 21 22 25 30
28 29 29 29 30 32 33 35 36 38 34 29 27 28 29 29 25 21 18 20 24 24 29 31 27 28 30
25 28 27 26 26 27 28 29 30 32 31 31 31 30 30 33 31 29 31 33 34 35 31 32 29 26 28
28 26 23 22 20 25 29 29 29 28 27 27 29 30 33 38 36 32 31 31 31 31 33 32 29 32 35
20 16 24 29 34 32 32 32 34 35 34 34 33 34 37 37 38 39 37 37 32 29 32 32 31 34 41
23 25 33 29 25 17 16 21 22 21 25 33 33 31 33 34 36 35 37 36 33 34 34 34 39 42 41
27 27 28 27 29 32 28 27 30 31 29 26 24 26 30 33 32 34 38 38 35 32 34 39 44 40 38
17 17 16 16 16 18 18 19 23 29 32 30 26 31 34 33 26 24 27 29 31 34 33 34 39 39 40
Wind_Direction
209 208 211 211 210 215 222 232 243 252 261 267 274 277 280 281 282 285 287 290 291 289 280 277 273 274 283
196 202 204 207 211 215 226 239 247 261 266 272 279 282 283 283 282 283 284 286 287 285 282 275 276 282 288
196 197 198 199 207 220 234 250 263 273 277 280 283 282 280 279 280 281 282 282 283 284 281 280 280 278 281
189 192 197 200 208 226 245 262 272 275 279 281 281 283 285 285 280 276 277 277 278 281 281 279 277 278 281
202 203 209 219 235 254 268 277 278 283 285 284 282 279 280 280 279 279 276 276 278 280 280 277 277 277 279
213 219 230 249 259 267 270 275 277 278 275 275 274 277 280 281 281 281 284 288 288 285 280 277 276 277 276
249 253 254 257 256 256 265 267 270 271 274 272 272 273 276 277 278 280 283 281 276 275 276 274 276 277 278
248 249 248 248 257 261 265 268 269 268 267 268 272 274 279 277 277 280 279 275 269 271 274 276 279 278 278
240 246 250 253 255 258 255 260 263 265 266 268 273 278 278 278 277 275 275 272 267 265 271 274 276 277 275
252 253 251 251 249 246 254 254 257 264 269 269 271 275 278 279 279 279 267 258 246 253 263 273 279 279 280
263 259 255 251 250 250 247 251 257 262 266 268 270 274 271 263 266 266 264 255 254 255 270 279 275 277 276
250 255 259 261 267 268 263 260 259 259 264 264 262 262 266 261 261 264 264 264 265 274 277 281 279 269 266
254 258 257 258 262 264 264 263 262 259 256 255 256 258 262 264 265 264 266 264 268 270 276 278 270 266 275
242 244 252 251 255 260 262 264 264 263 263 261 257 256 259 261 266 268 269 269 269 267 276 278 269 279 289
254 258 259 267 264 254 242 240 252 258 264 260 258 260 257 266 265 268 270 270 270 271 277 274 279 285 289
257 257 256 258 262 265 267 268 269 271 274 274 273 272 267 257 261 266 261 258 269 269 274 280 283 286 282
246 244 247 251 252 258 265 268 269 267 265 267 270 267 254 249 253 261 258 266 272 281 277 272 274 278 282